When you browse on this site, cookies collect data to enhance your experience and personalize the content and advertising you see.
Visit our Privacy Policy to learn more. By continuing to use the site, you agree to this use of cookies and data.
  • In Lithuania
  • List of Countries
  • For 7 days
  • Water Temperature
  • Weather Map
  • Weather Widgets
  • user-avatar
    Login

    Hourly Weather Gjirokaster

    Today, 20 October, Sunday

    Time Temperature Precipitation Wind Pressure Humidity
    00:00 +10°C° 0 mm 1 mps 654 mmHg 77%
    01:00 +10°C° 0 mm 1 mps 654 mmHg 77%
    02:00 +10°C° 0 mm 1 mps 654 mmHg 76%
    03:00 +10°C° 0 mm 1 mps 654 mmHg 75%
    04:00 +9°C° 0 mm 1 mps 654 mmHg 74%
    05:00 +10°C° 0 mm 1 mps 654 mmHg 72%
    06:00 +10°C° 0 mm 1 mps 654 mmHg 70%
    07:00 +11°C° 0 mm 1 mps 655 mmHg 67%
    08:00 +13°C° 0 mm 1 mps 655 mmHg 59%
    09:00 +15°C° 0 mm 1 mps 656 mmHg 51%
    10:00 +18°C° 0 mm 1 mps 657 mmHg 43%
    11:00 +18°C° 0 mm 1 mps 657 mmHg 41%
    12:00 +19°C° 0 mm 1 mps 657 mmHg 39%
    13:00 +19°C° 0 mm 1 mps 657 mmHg 37%
    14:00 +19°C° 0 mm 1 mps 657 mmHg 41%
    15:00 +18°C° 0 mm 1 mps 656 mmHg 46%
    16:00 +16°C° 0 mm 1 mps 656 mmHg 51%
    17:00 +15°C° 0 mm 1 mps 656 mmHg 58%
    18:00 +13°C° 0 mm 1 mps 655 mmHg 66%
    19:00 +12°C° 0 mm 1 mps 655 mmHg 73%
    20:00 +12°C° 0 mm 1 mps 655 mmHg 73%
    21:00 +11°C° 0 mm 1 mps 655 mmHg 73%
    22:00 +11°C° 0 mm 1 mps 656 mmHg 73%
    23:00 +11°C° 0 mm 1 mps 656 mmHg 71%

    Tomorrow, 21 October, Monday

    Time Temperature Precipitation Wind Pressure Humidity
    00:00 +11°C° 0 mm 1 mps 655 mmHg 70%
    01:00 +10°C° 0 mm 0 mps 655 mmHg 68%
    02:00 +11°C° 0 mm 1 mps 655 mmHg 67%
    03:00 +10°C° 0 mm 1 mps 655 mmHg 66%
    04:00 +10°C° 0 mm 1 mps 655 mmHg 65%
    05:00 +11°C° 0 mm 1 mps 655 mmHg 63%
    06:00 +11°C° 0 mm 1 mps 655 mmHg 62%
    07:00 +12°C° 0 mm 1 mps 656 mmHg 60%
    08:00 +14°C° 0 mm 1 mps 656 mmHg 54%
    09:00 +16°C° 0 mm 1 mps 657 mmHg 48%
    10:00 +19°C° 0 mm 1 mps 658 mmHg 43%
    11:00 +20°C° 0 mm 1 mps 658 mmHg 42%
    12:00 +19°C° 0 mm 2 mps 658 mmHg 42%
    13:00 +20°C° 0 mm 2 mps 657 mmHg 42%
    14:00 +19°C° 0 mm 2 mps 657 mmHg 47%
    15:00 +18°C° 0 mm 2 mps 657 mmHg 53%
    16:00 +17°C° 0 mm 2 mps 656 mmHg 58%
    17:00 +16°C° 0 mm 2 mps 656 mmHg 62%
    18:00 +14°C° 0 mm 1 mps 656 mmHg 66%
    19:00 +13°C° 0 mm 1 mps 656 mmHg 70%
    20:00 +13°C° 0 mm 1 mps 655 mmHg 69%
    21:00 +13°C° 0 mm 1 mps 655 mmHg 69%
    22:00 +12°C° 0 mm 1 mps 655 mmHg 68%
    23:00 +12°C° 0 mm 1 mps 655 mmHg 66%

    Day after tomorrow, 22 October, Tuesday

    Time Temperature Precipitation Wind Pressure Humidity
    00:00 +12°C° 0 mm 1 mps 655 mmHg 64%
    01:00 +12°C° 0 mm 1 mps 655 mmHg 62%
    02:00 +12°C° 0 mm 1 mps 655 mmHg 60%
    03:00 +11°C° 0 mm 1 mps 655 mmHg 58%
    04:00 +11°C° 0 mm 1 mps 654 mmHg 56%
    05:00 +12°C° 0 mm 1 mps 655 mmHg 54%
    06:00 +12°C° 0 mm 1 mps 655 mmHg 53%
    07:00 +12°C° 0 mm 1 mps 655 mmHg 52%
    08:00 +15°C° 0 mm 1 mps 656 mmHg 46%
    09:00 +18°C° 0 mm 1 mps 656 mmHg 40%
    10:00 +20°C° 0 mm 1 mps 657 mmHg 35%
    11:00 +21°C° 0 mm 1 mps 657 mmHg 34%
    12:00 +21°C° 0 mm 1 mps 657 mmHg 32%
    13:00 +22°C° 0 mm 1 mps 657 mmHg 31%
    14:00 +21°C° 0 mm 1 mps 656 mmHg 36%
    15:00 +20°C° 0 mm 1 mps 656 mmHg 41%
    16:00 +18°C° 0 mm 2 mps 655 mmHg 46%
    17:00 +16°C° 0 mm 1 mps 655 mmHg 48%
    18:00 +15°C° 0 mm 1 mps 655 mmHg 51%
    19:00 +14°C° 0 mm 1 mps 655 mmHg 54%
    20:00 +13°C° 0 mm 1 mps 655 mmHg 54%
    21:00 +13°C° 0 mm 1 mps 655 mmHg 54%
    22:00 +13°C° 0 mm 1 mps 655 mmHg 54%
    23:00 +12°C° 0 mm 1 mps 655 mmHg 54%

    23 October, Wednesday

    Time Temperature Precipitation Wind Pressure Humidity
    00:00 +12°C° 0 mm 1 mps 654 mmHg 53%
    01:00 +12°C° 0 mm 1 mps 654 mmHg 53%
    02:00 +12°C° 0 mm 1 mps 654 mmHg 52%
    03:00 +11°C° 0 mm 1 mps 654 mmHg 52%
    04:00 +11°C° 0 mm 1 mps 654 mmHg 51%
    05:00 +11°C° 0 mm 1 mps 654 mmHg 50%
    06:00 +12°C° 0 mm 1 mps 654 mmHg 49%
    07:00 +12°C° 0 mm 1 mps 654 mmHg 48%
    08:00 +14°C° 0 mm 1 mps 655 mmHg 42%
    09:00 +18°C° 0 mm 1 mps 655 mmHg 36%
    10:00 +20°C° 0 mm 1 mps 656 mmHg 31%
    11:00 +20°C° 0 mm 1 mps 656 mmHg 30%
    12:00 +21°C° 0 mm 1 mps 656 mmHg 29%
    13:00 +21°C° 0 mm 1 mps 656 mmHg 28%
    14:00 +20°C° 0 mm 1 mps 655 mmHg 33%
    15:00 +19°C° 0 mm 1 mps 655 mmHg 39%
    16:00 +17°C° 0 mm 2 mps 654 mmHg 44%
    17:00 +16°C° 0 mm 1 mps 654 mmHg 46%
    18:00 +15°C° 0 mm 1 mps 653 mmHg 48%
    19:00 +13°C° 0 mm 1 mps 653 mmHg 50%
    20:00 +13°C° 0 mm 1 mps 653 mmHg 49%
    21:00 +13°C° 0 mm 1 mps 653 mmHg 48%
    22:00 +12°C° 0 mm 1 mps 653 mmHg 47%
    23:00 +12°C° 0 mm 1 mps 653 mmHg 46%

    24 October, Thursday

    Time Temperature Precipitation Wind Pressure Humidity
    00:00 +12°C° 0 mm 1 mps 653 mmHg 46%
    01:00 +11°C° 0 mm 1 mps 653 mmHg 45%
    02:00 +11°C° 0 mm 1 mps 653 mmHg 45%
    03:00 +11°C° 0 mm 1 mps 652 mmHg 44%
    04:00 +10°C° 0 mm 1 mps 652 mmHg 44%
    05:00 +11°C° 0 mm 1 mps 652 mmHg 43%
    06:00 +11°C° 0 mm 1 mps 652 mmHg 42%
    07:00 +10°C° 0 mm 2 mps 652 mmHg 42%
    08:00 +13°C° 0 mm 1 mps 653 mmHg 37%
    09:00 +16°C° 0 mm 1 mps 654 mmHg 32%
    10:00 +19°C° 0 mm 1 mps 654 mmHg 27%
    11:00 +20°C° 0 mm 1 mps 654 mmHg 26%
    12:00 +20°C° 0 mm 1 mps 654 mmHg 26%
    13:00 +21°C° 0 mm 1 mps 654 mmHg 26%
    14:00 +20°C° 0 mm 1 mps 653 mmHg 31%
    15:00 +19°C° 0 mm 1 mps 653 mmHg 35%
    16:00 +18°C° 0 mm 1 mps 652 mmHg 40%
    17:00 +14°C° 0 mm 0 mps 652 mmHg 44%
    18:00 +12°C° 0 mm 0 mps 652 mmHg 48%
    19:00 +11°C° 0 mm 0 mps 651 mmHg 52%
    20:00 +12°C° 0 mm 1 mps 651 mmHg 52%
    21:00 +11°C° 0 mm 1 mps 651 mmHg 51%
    22:00 +11°C° 0 mm 1 mps 651 mmHg 51%
    23:00 +11°C° 0 mm 1 mps 651 mmHg 50%

    25 October, Friday

    Time Temperature Precipitation Wind Pressure Humidity
    00:00 +10°C° 0 mm 1 mps 651 mmHg 48%
    01:00 +10°C° 0 mm 1 mps 651 mmHg 46%
    02:00 +10°C° 0 mm 1 mps 651 mmHg 46%
    03:00 +9°C° 0 mm 1 mps 650 mmHg 46%
    04:00 +9°C° 0 mm 1 mps 650 mmHg 46%
    05:00 +9°C° 0 mm 2 mps 650 mmHg 45%
    06:00 +9°C° 0 mm 2 mps 650 mmHg 44%
    07:00 +9°C° 0 mm 2 mps 651 mmHg 43%
    08:00 +12°C° 0 mm 2 mps 651 mmHg 38%
    09:00 +15°C° 0 mm 2 mps 652 mmHg 32%
    10:00 +17°C° 0 mm 2 mps 653 mmHg 27%
    11:00 +17°C° 0 mm 2 mps 653 mmHg 27%
    12:00 +18°C° 0 mm 2 mps 653 mmHg 26%
    13:00 +18°C° 0 mm 2 mps 652 mmHg 26%
    14:00 +17°C° 0 mm 2 mps 652 mmHg 31%
    15:00 +16°C° 0 mm 1 mps 652 mmHg 36%
    16:00 +15°C° 0 mm 1 mps 651 mmHg 40%
    17:00 +14°C° 0 mm 1 mps 651 mmHg 43%
    18:00 +13°C° 0 mm 1 mps 651 mmHg 46%
    19:00 +11°C° 0 mm 1 mps 650 mmHg 48%
    20:00 +11°C° 0 mm 1 mps 650 mmHg 47%
    21:00 +11°C° 0 mm 1 mps 650 mmHg 46%
    22:00 +11°C° 0 mm 1 mps 651 mmHg 45%
    23:00 +11°C° 0 mm 1 mps 650 mmHg 44%
    Show more